Time,TemperatureF,DewpointF,PressureIn,WindDirection,WindDirectionDegrees,WindSpeedMPH,WindSpeedGustMPH,Humidity,HourlyPrecipIn,Conditions,Clouds,dailyrainin,SoftwareType,DateUTC
2013-03-09 00:00:00,60.2,54.0,30.05,SE,132,4.0,-999.0,79,-99.99,,,0.00,weatherlink.com 1.10,2013-03-09 06:00:00,
2013-03-09 00:15:00,60.3,54.0,30.04,SE,142,5.0,-999.0,79,-99.99,,,0.00,weatherlink.com 1.10,2013-03-09 06:15:00,
2013-03-09 00:30:00,60.3,54.0,30.03,SE,128,4.0,-999.0,80,-99.99,,,0.00,weatherlink.com 1.10,2013-03-09 06:30:00,
2013-03-09 00:45:00,60.3,54.0,30.03,ESE,120,6.0,-999.0,80,-99.99,,,0.00,weatherlink.com 1.10,2013-03-09 06:45:00,
2013-03-09 01:00:00,60.2,54.0,30.03,SE,136,0.0,-999.0,80,-99.99,,,0.00,weatherlink.com 1.10,2013-03-09 07:00:00,
2013-03-09 01:15:00,60.0,54.0,30.03,SSE,153,3.0,-999.0,80,-99.99,,,0.00,weatherlink.com 1.10,2013-03-09 07:15:00,
2013-03-09 01:30:00,59.9,54.0,30.02,SE,135,1.0,-999.0,80,-99.99,,,0.00,weatherlink.com 1.10,2013-03-09 07:30:00,
2013-03-09 01:45:00,59.9,54.0,30.02,SE,134,2.0,-999.0,81,-99.99,,,0.00,weatherlink.com 1.10,2013-03-09 07:45:00,
2013-03-09 02:15:00,59.9,54.0,30.00,SE,142,5.0,-999.0,82,-99.99,,,0.00,weatherlink.com 1.10,2013-03-09 08:15:00,
2013-03-09 02:30:00,59.9,54.0,30.00,ESE,121,3.0,-999.0,82,-99.99,,,0.00,weatherlink.com 1.10,2013-03-09 08:30:00,
2013-03-09 02:46:00,59.6,54.0,29.99,SE,134,3.0,-999.0,82,-99.99,,,0.00,weatherlink.com 1.10,2013-03-09 08:46:00,
2013-03-09 03:01:00,59.5,54.0,29.98,SE,130,4.0,-999.0,83,-99.99,,,0.00,weatherlink.com 1.10,2013-03-09 09:01:00,
2013-03-09 03:16:00,59.4,54.0,29.97,SE,134,4.0,-999.0,83,-99.99,,,0.00,weatherlink.com 1.10,2013-03-09 09:16:00,
2013-03-09 03:31:00,59.3,54.0,29.96,SE,140,4.0,-999.0,83,-99.99,,,0.00,weatherlink.com 1.10,2013-03-09 09:31:00,
2013-03-09 03:46:00,59.1,54.0,29.96,SE,133,4.0,-999.0,84,-99.99,,,0.00,weatherlink.com 1.10,2013-03-09 09:46:00,
2013-03-09 04:01:00,59.0,54.0,29.95,SE,130,3.0,-999.0,84,-99.99,,,0.00,weatherlink.com 1.10,2013-03-09 10:01:00,
2013-03-09 04:16:00,59.0,54.0,29.95,SE,138,6.0,-999.0,84,-99.99,,,0.00,weatherlink.com 1.10,2013-03-09 10:16:00,
2013-03-09 04:31:00,59.0,54.0,29.95,ESE,113,5.0,-999.0,84,-99.99,,,0.00,weatherlink.com 1.10,2013-03-09 10:31:00,
2013-03-09 04:46:00,59.0,55.0,29.95,ESE,119,5.0,-999.0,85,-99.99,,,0.00,weatherlink.com 1.10,2013-03-09 10:46:00,
2013-03-09 05:01:00,58.9,54.0,29.95,SE,139,5.0,-999.0,85,-99.99,,,0.00,weatherlink.com 1.10,2013-03-09 11:01:00,
2013-03-09 05:16:00,58.9,54.0,29.94,SE,139,9.0,-999.0,85,-99.99,,,0.00,weatherlink.com 1.10,2013-03-09 11:16:00,
2013-03-09 05:31:00,59.0,55.0,29.94,SE,127,3.0,-999.0,86,-99.99,,,0.00,weatherlink.com 1.10,2013-03-09 11:31:00,
2013-03-09 05:46:00,59.0,55.0,29.95,ESE,118,2.0,-999.0,85,-99.99,,,0.00,weatherlink.com 1.10,2013-03-09 11:46:00,
2013-03-09 06:01:00,59.0,55.0,29.95,ESE,109,5.0,-999.0,86,-99.99,,,0.00,weatherlink.com 1.10,2013-03-09 12:01:00,
2013-03-09 06:16:00,59.0,55.0,29.94,SE,124,4.0,-999.0,86,-99.99,,,0.00,weatherlink.com 1.10,2013-03-09 12:16:00,
2013-03-09 06:31:00,59.0,55.0,29.94,SE,130,2.0,-999.0,86,-99.99,,,0.00,weatherlink.com 1.10,2013-03-09 12:31:00,
2013-03-09 06:46:00,59.0,55.0,29.94,ESE,115,5.0,-999.0,86,-99.99,,,0.00,weatherlink.com 1.10,2013-03-09 12:46:00,
2013-03-09 07:01:00,59.0,55.0,29.94,ESE,122,3.0,-999.0,86,-99.99,,,0.00,weatherlink.com 1.10,2013-03-09 13:01:00,
2013-03-09 07:16:00,59.3,55.0,29.94,ESE,117,4.0,-999.0,86,-99.99,,,0.00,weatherlink.com 1.10,2013-03-09 13:16:00,
2013-03-09 07:31:00,59.5,56.0,29.94,SE,127,0.0,-999.0,87,-99.99,,,0.00,weatherlink.com 1.10,2013-03-09 13:31:00,
2013-03-09 07:46:00,59.8,56.0,29.94,SE,128,6.0,-999.0,87,-99.99,,,0.00,weatherlink.com 1.10,2013-03-09 13:46:00,
2013-03-09 08:01:00,60.2,56.0,29.94,ESE,123,4.0,-999.0,87,-99.99,,,0.00,weatherlink.com 1.10,2013-03-09 14:01:00,
2013-03-09 08:16:00,60.6,57.0,29.94,SE,130,0.0,-999.0,87,-99.99,,,0.00,weatherlink.com 1.10,2013-03-09 14:16:00,
2013-03-09 08:31:00,61.0,57.0,29.94,SE,144,7.0,-999.0,87,-99.99,,,0.00,weatherlink.com 1.10,2013-03-09 14:31:00,
2013-03-09 08:46:00,61.4,58.0,29.94,SE,125,5.0,-999.0,87,-99.99,,,0.00,weatherlink.com 1.10,2013-03-09 14:46:00,
2013-03-09 09:01:00,62.2,58.0,29.94,SE,135,0.0,-999.0,86,-99.99,,,0.00,weatherlink.com 1.10,2013-03-09 15:01:00,
2013-03-09 09:16:00,63.3,59.0,29.93,SE,143,5.0,-999.0,86,-99.99,,,0.00,weatherlink.com 1.10,2013-03-09 15:16:00,
2013-03-09 09:31:00,64.3,60.0,29.93,South,179,6.0,-999.0,85,-99.99,,,0.00,weatherlink.com 1.10,2013-03-09 15:31:00,
2013-03-09 09:46:00,65.2,60.0,29.93,SSE,160,10.0,-999.0,84,-99.99,,,0.00,weatherlink.com 1.10,2013-03-09 15:46:00,
2013-03-09 10:01:00,66.1,61.0,29.92,South,186,7.0,-999.0,83,-99.99,,,0.00,weatherlink.com 1.10,2013-03-09 16:01:00,
2013-03-09 10:16:00,67.2,62.0,29.91,SSE,160,11.0,-999.0,82,-99.99,,,0.00,weatherlink.com 1.10,2013-03-09 16:16:00,
2013-03-09 10:31:00,68.3,62.0,29.90,SSE,165,7.0,-999.0,80,-99.99,,,0.00,weatherlink.com 1.10,2013-03-09 16:31:00,
2013-03-09 10:46:00,68.7,62.0,29.90,South,171,13.0,-999.0,79,-99.99,,,0.00,weatherlink.com 1.10,2013-03-09 16:46:00,
2013-03-09 11:01:00,69.7,63.0,29.89,SE,130,14.0,-999.0,79,-99.99,,,0.00,weatherlink.com 1.10,2013-03-09 17:01:00,
2013-03-09 11:16:00,70.1,63.0,29.89,South,182,13.0,-999.0,77,-99.99,,,0.00,weatherlink.com 1.10,2013-03-09 17:16:00,
2013-03-09 11:32:00,71.4,63.0,29.88,SSE,165,10.0,-999.0,75,-99.99,,,0.00,weatherlink.com 1.10,2013-03-09 17:32:00,
2013-03-09 11:47:00,71.5,63.0,29.88,SSE,155,6.0,-999.0,74,-99.99,,,0.00,weatherlink.com 1.10,2013-03-09 17:47:00,
2013-03-09 12:02:00,72.1,63.0,29.87,South,173,9.0,-999.0,72,-99.99,,,0.00,weatherlink.com 1.10,2013-03-09 18:02:00,
2013-03-09 12:17:00,72.1,63.0,29.86,South,190,12.0,-999.0,72,-99.99,,,0.00,weatherlink.com 1.10,2013-03-09 18:17:00,
2013-03-09 12:32:00,72.1,62.0,29.85,South,175,12.0,-999.0,71,-99.99,,,0.00,weatherlink.com 1.10,2013-03-09 18:32:00,
2013-03-09 12:47:00,72.6,62.0,29.84,SE,137,11.0,-999.0,70,-99.99,,,0.00,weatherlink.com 1.10,2013-03-09 18:47:00,
2013-03-09 13:02:00,73.0,62.0,29.83,SSE,156,10.0,-999.0,69,-99.99,,,0.00,weatherlink.com 1.10,2013-03-09 19:02:00,
2013-03-09 13:17:00,72.8,62.0,29.83,South,188,3.0,-999.0,70,-99.99,,,0.00,weatherlink.com 1.10,2013-03-09 19:17:00,
2013-03-09 13:32:00,73.0,62.0,29.81,SSW,213,14.0,-999.0,69,-99.99,,,0.00,weatherlink.com 1.10,2013-03-09 19:32:00,
2013-03-09 13:47:00,73.1,62.0,29.80,SSE,152,2.0,-999.0,69,-99.99,,,0.00,weatherlink.com 1.10,2013-03-09 19:47:00,
2013-03-09 14:02:00,73.0,62.0,29.80,SE,146,10.0,-999.0,69,-99.99,,,0.00,weatherlink.com 1.10,2013-03-09 20:02:00,
2013-03-09 14:17:00,73.7,62.0,29.79,SSE,152,5.0,-999.0,68,-99.99,,,0.00,weatherlink.com 1.10,2013-03-09 20:17:00,
2013-03-09 14:32:00,74.0,63.0,29.78,SSE,161,9.0,-999.0,68,-99.99,,,0.00,weatherlink.com 1.10,2013-03-09 20:32:00,
2013-03-09 14:47:00,74.4,63.0,29.78,SSE,163,6.0,-999.0,67,-99.99,,,0.00,weatherlink.com 1.10,2013-03-09 20:47:00,
2013-03-09 15:02:00,74.4,63.0,29.77,SSE,165,6.0,-999.0,67,-99.99,,,0.00,weatherlink.com 1.10,2013-03-09 21:02:00,
2013-03-09 15:17:00,75.1,63.0,29.76,SE,141,11.0,-999.0,66,-99.99,,,0.00,weatherlink.com 1.10,2013-03-09 21:17:00,
2013-03-09 15:32:00,75.5,63.0,29.76,SSE,161,7.0,-999.0,66,-99.99,,,0.00,weatherlink.com 1.10,2013-03-09 21:32:00,
2013-03-09 15:47:00,74.8,62.0,29.76,SE,129,7.0,-999.0,65,-99.99,,,0.00,weatherlink.com 1.10,2013-03-09 21:47:00,
2013-03-09 16:02:00,74.1,62.0,29.77,ESE,115,0.0,-999.0,67,-99.99,,,0.00,weatherlink.com 1.10,2013-03-09 22:02:00,
2013-03-09 16:17:00,73.2,62.0,29.75,SSE,152,6.0,-999.0,68,-99.99,,,0.00,weatherlink.com 1.10,2013-03-09 22:17:00,
2013-03-09 16:32:00,73.2,62.0,29.75,ESE,123,12.0,-999.0,67,-99.99,,,0.00,weatherlink.com 1.10,2013-03-09 22:32:00,
2013-03-09 16:47:00,73.2,62.0,29.73,SE,141,12.0,-999.0,67,-99.99,,,0.00,weatherlink.com 1.10,2013-03-09 22:47:00,
2013-03-09 17:02:00,72.6,61.0,29.73,ESE,112,10.0,-999.0,68,-99.99,,,0.00,weatherlink.com 1.10,2013-03-09 23:02:00,
2013-03-09 17:17:00,72.2,61.0,29.74,SE,135,5.0,-999.0,68,-99.99,,,0.00,weatherlink.com 1.10,2013-03-09 23:17:00,
2013-03-09 17:32:00,71.3,61.0,29.74,SE,132,6.0,-999.0,70,-99.99,,,0.00,weatherlink.com 1.10,2013-03-09 23:32:00,
2013-03-09 17:47:00,70.5,61.0,29.74,SE,134,13.0,-999.0,71,-99.99,,,0.00,weatherlink.com 1.10,2013-03-09 23:47:00,
2013-03-09 18:02:00,70.3,61.0,29.75,SSE,150,7.0,-999.0,72,-99.99,,,0.00,weatherlink.com 1.10,2013-03-10 00:02:00,
2013-03-09 18:17:00,70.1,61.0,29.73,SE,140,5.0,-999.0,72,-99.99,,,0.00,weatherlink.com 1.10,2013-03-10 00:17:00,
2013-03-09 18:32:00,70.0,61.0,29.72,SE,128,10.0,-999.0,72,-99.99,,,0.00,weatherlink.com 1.10,2013-03-10 00:32:00,
2013-03-09 18:47:00,69.5,61.0,29.72,SSE,165,6.0,-999.0,73,-99.99,,,0.00,weatherlink.com 1.10,2013-03-10 00:47:00,
2013-03-09 19:02:00,69.4,60.0,29.73,ESE,121,2.0,-999.0,73,-99.99,,,0.00,weatherlink.com 1.10,2013-03-10 01:02:00,
2013-03-09 19:17:00,69.4,60.0,29.73,SE,129,6.0,-999.0,73,-99.99,,,0.00,weatherlink.com 1.10,2013-03-10 01:17:00,
2013-03-09 19:32:00,69.3,60.0,29.74,South,169,3.0,-999.0,73,-99.99,,,0.00,weatherlink.com 1.10,2013-03-10 01:32:00,
2013-03-09 19:47:00,69.3,60.0,29.75,SSE,167,0.0,-999.0,72,-99.99,,,0.00,weatherlink.com 1.10,2013-03-10 01:47:00,
2013-03-09 20:02:00,69.2,60.0,29.76,SE,142,10.0,-999.0,72,-99.99,,,0.00,weatherlink.com 1.10,2013-03-10 02:02:00,
2013-03-09 20:17:00,69.1,60.0,29.76,SSE,150,0.0,-999.0,72,-99.99,,,0.00,weatherlink.com 1.10,2013-03-10 02:17:00,
2013-03-09 20:32:00,68.8,60.0,29.75,ESE,123,7.0,-999.0,73,-99.99,,,0.00,weatherlink.com 1.10,2013-03-10 02:32:00,
2013-03-09 20:47:00,68.6,60.0,29.76,SE,140,9.0,-999.0,73,-99.99,,,0.00,weatherlink.com 1.10,2013-03-10 02:47:00,
2013-03-09 21:02:00,68.4,59.0,29.77,SSE,161,6.0,-999.0,73,-99.99,,,0.00,weatherlink.com 1.10,2013-03-10 03:02:00,
2013-03-09 21:17:00,68.3,60.0,29.77,SSE,149,0.0,-999.0,74,-99.99,,,0.00,weatherlink.com 1.10,2013-03-10 03:17:00,
2013-03-09 21:32:00,68.1,60.0,29.76,SE,140,4.0,-999.0,74,-99.99,,,0.00,weatherlink.com 1.10,2013-03-10 03:32:00,
2013-03-09 21:47:00,67.9,60.0,29.76,SE,129,5.0,-999.0,75,-99.99,,,0.00,weatherlink.com 1.10,2013-03-10 03:47:00,
2013-03-09 22:02:00,67.6,59.0,29.76,ESE,113,5.0,-999.0,75,-99.99,,,0.00,weatherlink.com 1.10,2013-03-10 04:02:00,
2013-03-09 22:17:00,67.0,59.0,29.74,ESE,111,9.0,-999.0,76,-99.99,,,0.00,weatherlink.com 1.10,2013-03-10 04:17:00,
2013-03-09 22:32:00,66.7,59.0,29.76,SE,134,0.0,-999.0,77,-99.99,,,0.00,weatherlink.com 1.10,2013-03-10 04:32:00,
2013-03-09 22:47:00,66.4,59.0,29.75,ESE,119,3.0,-999.0,78,-99.99,,,0.00,weatherlink.com 1.10,2013-03-10 04:47:00,
2013-03-09 23:03:00,66.1,59.0,29.75,ESE,118,0.0,-999.0,79,-99.99,,,0.00,weatherlink.com 1.10,2013-03-10 05:03:00,
2013-03-09 23:18:00,65.9,59.0,29.75,SE,143,2.0,-999.0,79,-99.99,,,0.00,weatherlink.com 1.10,2013-03-10 05:18:00,
2013-03-09 23:33:00,65.9,60.0,29.76,SSE,151,1.0,-999.0,80,-99.99,,,0.00,weatherlink.com 1.10,2013-03-10 05:33:00,
2013-03-09 23:48:00,65.9,60.0,29.78,South,188,0.0,-999.0,80,-99.99,,,0.00,weatherlink.com 1.10,2013-03-10 05:48:00,